Location: Callao
(39.8979°N, 113.7141°W)
Time: 17:25:09
(UTC+00:00)

ISS - Pass Details

Date: 07 March 2021
Orbit: 418 x 421 km, 51.6° (Epoch: 21 April)

Event Time Altitude Azimuth Distance (km) Brightness Sun altitude
Exits shadow 13:11:27 - 317° (NW) 1,878 -0.8 -9.8°
Reaches altitude 10° 13:12:27 10° 324° (NW) 1,499 -1.3 -9.6°
Maximum altitude 13:15:30 31° 28° (NNE) 761 -2.1 -9.1°
Drops below altitude 10° 13:18:32 10° 93° (E) 1,494 0.8 -8.5°
Sets 13:20:46 0° 104° (ESE) 2,351 1.9 -8.0°
